Regional Weather Roundup
Issued by NWS

Home | Current Version | Previous Version | Graphics & Text | Print | Product List | Glossary On
Versions: 1 2 3 4 5 6 7 8 9 10 11 12 13 14 15 16 17 18 19 20 21 22 23 24 25 26 27 28 29 30 31 32 33 34 35 36 37 38 39 40 41 42 43 44 45 46 47 48 49 50
037
ASUS45 KBOU 222207
RWRCO

WEATHER ROUNDUP FOR COLORADO
NATIONAL WEATHER SERVICE DENVER/BOULDER CO
400 PM MDT WED MAR 22 2017

NOTE: "FAIR" INDICATES FEW OR NO CLOUDS BELOW 12000 FEET WITH NO
SIGNIFICANT WEATHER AND/OR OBSTRUCTIONS TO VISIBILITY.

COZ001>005-013-030-031-222300-
...NORTHWEST COLORADO...

CITY           SKY/WX    TMP DP  RH WIND       PRES   REMARKS
CRAIG          FAIR      67  20  16 S16G25    29.89F
HAYDEN         FAIR      66  21  18 S16G26    29.93F
MEEKER         FAIR      63  21  20 S18G32    29.93F
MOUNT WERNER   NOT AVBL
STEAMBOAT SPGS CLOUDY    62  24  23 S15       29.94F
WALDEN         NOT AVBL
$$

COZ006>008-011-222300-
...WEST CENTRAL VALLEYS...

CITY           SKY/WX    TMP DP  RH WIND       PRES   REMARKS
GRAND JUNCTION CLOUDY    71  23  16 S22G28    29.86F
MONTROSE       FAIR      66  23  19 N9        29.94F
EAGLE          MOSUNNY   63  25  23 SW23G29   30.01F
RIFLE          FAIR      66  26  22 SW15G28   29.94S
DELTA          CLOUDY    69  26  20 SW26G35   29.92F
NUCLA          FAIR      68  18  14 SW18G24   29.97F
$$

COZ017>023-064>068-222300-
...SOUTHWEST COLORADO...

CITY           SKY/WX    TMP DP  RH WIND       PRES   REMARKS
DURANGO        FAIR      64  19  17 CALM      30.03F
CORTEZ         FAIR      69  19  15 S12       29.96F
PAGOSA SPRINGS FAIR      58  25  28 CALM      30.10F
TELLURIDE      FAIR      55  19  24 S14G25    30.11F
WOLF CREEK PAS CLOUDY    34  23  64 S10       30.32F WCI  26
$$

COZ009-010-012-014-032>034-037-058>063-222300-
...CENTRAL COLORADO...

CITY           SKY/WX    TMP DP  RH WIND       PRES   REMARKS
ASPEN          FAIR      56  24  29 S18G29    30.05F
BUENA VISTA    FAIR      65  11  12 SW14G21   30.02S
COPPER MTN     NOT AVBL
BERTHOUD PASS  FAIR      36  27  69 W32G47    30.23F
COTTONWOOD PAS FAIR      57   9  14 SW13G29   30.12S
GUNNISON       FAIR      54  28  36 N14       30.04F
KREMMLING      FAIR      66  19  16 SW25G36   30.02S
LEADVILLE      CLOUDY    48  15  26 CALM      30.12F
SALIDA         FAIR      67  14  12 W7        30.07F
SUNLIGHT       CLOUDY    37  23  56 S8G21     30.21F
WILKERSON PASS FAIR      52  10  19 SW15G30   30.21F
$$

COZ069>075-222300-
...SAN LUIS VALLEY/SANGRE DE CRISTO MOUNTAINS...

CITY           SKY/WX    TMP DP  RH WIND       PRES   REMARKS
ALAMOSA        FAIR      67  12  12 W17G28    30.04S
LA VETA PASS   NOT AVBL
SAGUACHE       FAIR      64  12  13 W14G30    30.04F
$$

COZ035-036-038>040-222300-
...NORTHERN COLORADO FRONT RANGE...

CITY           SKY/WX    TMP DP  RH WIND       PRES   REMARKS
DENVER INTL AP PTSUNNY   70  33  25 N12       29.85F
DMNS CITY PARK   N/A     68  32  26 NE12G21   29.85F
AURORA         PTSUNNY   74  34  22 N14G20    29.86F
FRONT RANGE AP PTSUNNY   75  32  20 N14G24    29.86F
ERIE MUNI ARPT FAIR      68  30  24 N5        29.86F
BOULDER MUN AP FAIR      68  32  26 NE5       29.86F
CENTENNIAL     PTSUNNY   74  32  21 N15       29.86F
BROOMFIELD     PTSUNNY   63  32  31 N6        29.88F
FORT COLLINS   FAIR      67  36  31 SE7       29.87F
LONGMONT       FAIR      72  32  23 CALM      29.87F
$$

COZ041-046-047-076>085-087-088-222300-
...PIKES PEAK/PALMER DIVIDE AND SOUTHERN FOOTHILLS...

CITY           SKY/WX    TMP DP  RH WIND       PRES   REMARKS
COLO. SPRINGS  PTSUNNY   61  31  32 SE12      29.96F
A. F. ACADEMY  FAIR      62  30  29 S14       29.95F
SCHRIEVER AFB  FAIR      61  30  31 S13       29.96F
ELLICOTT         N/A    N/A N/A N/A S16       29.94F
FALCON         FAIR      61  29  29 S16G23    29.99F
FORT CARSON    PTSUNNY   63  30  29 SE14      29.94F
LIMON          FAIR      64  36  35 SE18G28   29.92F
MONUMENT HILL  FAIR      59  30  33 S17       29.98F
TRINIDAD       FAIR      80  23  12 SW21G28   29.90F
$$

COZ042>045-048>051-090-091-222300-
...NORTHEAST COLORADO...

CITY           SKY/WX    TMP DP  RH WIND       PRES   REMARKS
GREELEY ARPT   FAIR      67  36  31 CALM      29.86F
AKRON          FAIR      71  36  27 SE20      29.87F
BURLINGTON     FAIR      63  38  39 S28G36    29.94F
WRAY           FAIR      64  34  32 SE23G30   29.94F
STERLING       FAIR      72  37  28 S21       29.84F
HOLYOKE        FAIR      64  34  32 S23G30    29.92F
FORT MORGAN    FAIR      78  30  17 SE10      29.84F
$$

COZ086-089-092>099-222300-
...SOUTHEAST COLORADO...

CITY           SKY/WX    TMP DP  RH WIND       PRES   REMARKS
PUEBLO         FAIR      68  34  28 SE8       29.89F
LA JUNTA       FAIR      80  41  24 E15G22    29.83F
LAMAR          FAIR      74  41  30 SE17G29   29.87F
SPRINGFIELD      N/A     70  42  36 S29G38    29.94F
$$




USA.gov is the U.S. government's official web portal to all federal, state and local government web resources and services.